Location: Melbourne
(37.8170°S, 144.9670°E)
Time: 08:12:32
(UTC+10:00)

ERBS - Pass Details

Date: 21 April 2018
Orbit: 419 x 439 km, 57.0° (Epoch: 22 May)

Event Time Altitude Azimuth Distance (km) Brightness Sun altitude
Rises 18:19:50 0° 276° (W) 2,431 8.7 -7.4°
Reaches altitude 10° 18:22:40 10° 251° (WSW) 1,564 6.3 -8.0°
Maximum altitude 18:24:45 15° 214° (SW) 1,295 5.1 -8.4°
Drops below altitude 10° 18:26:51 10° 177° (S) 1,566 5.0 -8.8°
Enters shadow 18:29:36 - 153° (SSE) 2,407 5.8 -9.3°
